SCP
1 1 1 1 1 2 1 1 1 1 1 1 1 1 1 1 1 1 1 1 1 1 1 1 1 1 1 1 1 1 1 1 1 1 1 1 1 1 1 1 1 1 1
2 2 2 1 1 2 2 1 1 1 1 1 1 1 1 1 1 1 1 1 1 1 1 1 1 1 1 1 1 1 2 2 1 1 1 1 1 1 1 1 1 1 1
3 3 3 3 2 2 2 2 2 1 1 1 1 1 1 1 1 1 1 1 1 1 1 1 1 1 1 1 2 2 2 2 2 2 2 1 1 1 1 1 1 1 1
3 3 3 4 4 3 3 2 2 2 2 2 2 1 1 1 1 1 1 1 1 1 1 1 2 2 2 2 2 2 2 2 2 2 2 2 2 1 1 1 1 2 2
2 2 2 3 3 3 3 3 2 2 2 2 1 1 1 1 2 2 2 2 1 1 1 1 2 2 2 3 3 3 3 3 3 2 2 2 2 3 2 2 2 2 2
1 1 2 2 3 4 4 3 3 2 2 2 1 1 1 2 2 2 2 2 2 1 1 1 1 1 1 2 3 3 3 3 3 3 3 3 3 4 4 3 2 2 2
2 2 2 3 4 4 5 5 4 4 3 2 2 2 2 2 2 2 2 2 2 1 1 1 1 1 1 1 2 2 3 3 4 4 4 4 4 5 5 4 3 3 3
2 3 3 3 3 5 6 6 6 5 4 4 3 3 3 3 3 3 3 3 2 2 2 2 2 1 1 1 1 2 2 3 3 4 4 4 4 4 5 6 5 5 4
3 3 4 3 3 4 6 7 7 7 6 5 4 4 5 5 5 5 5 4 3 2 2 2 2 2 2 2 2 2 2 3 3 3 3 4 4 4 5 6 7 6 5
3 4 5 4 3 4 6 8 8 8 7 6 6 6 8 9 9 8 7 5 4 3 2 2 2 2 2 2 2 2 2 3 3 3 3 3 3 4 4 6 7 6 5
3 4 5 5 4 5 6 8 9 8 8 8 9 11 13 13 12 10 8 7 5 4 3 3 3 3 3 3 3 3 3 3 3 3 3 3 3 4 4 4 5 4 4
4 4 5 6 6 7 8 9 10 9 9 10 13 15 15 14 13 10 8 7 7 7 5 3 3 3 3 3 3 3 3 3 3 4 4 4 5 4 4 4 4 4 3
5 5 6 7 7 8 10 10 10 10 9 10 13 15 14 11 11 10 8 7 8 10 7 5 4 4 3 4 4 4 4 4 5 5 5 6 6 6 6 5 5 5 4
7 8 8 8 8 7 8 9 9 9 9 9 11 11 11 10 10 9 8 7 8 10 8 5 5 5 4 4 5 5 6 6 7 7 7 7 8 8 8 7 7 7 7
8 10 11 10 7 6 6 6 7 7 7 7 8 9 9 9 9 9 8 7 8 8 6 5 5 5 4 4 4 5 7 8 8 8 7 7 7 7 7 8 8 9 9
8 10 12 10 7 6 6 6 7 6 5 6 6 6 7 7 8 8 9 9 8 7 6 5 5 4 4 3 3 4 6 7 8 8 7 7 6 6 6 6 6 7 8
9 11 12 10 7 6 6 7 7 6 5 5 5 6 6 6 6 8 8 8 8 7 6 5 4 3 3 2 2 3 5 6 6 6 6 6 6 6 6 5 5 5 5
9 10 11 9 6 6 7 8 7 6 5 5 6 7 7 6 6 7 7 7 6 5 5 5 4 4 3 3 2 2 4 5 4 5 5 6 6 6 7 8 8 7 6
8 8 8 7 6 6 7 7 7 6 6 6 8 9 9 7 6 6 7 7 6 5 5 5 5 4 4 3 2 2 3 5 5 5 5 5 5 6 7 9 10 9 7
7 7 7 7 6 7 8 9 9 8 7 7 8 9 9 8 6 6 7 7 6 6 5 5 5 5 5 3 2 2 5 6 6 5 5 4 4 4 5 7 8 7 5
7 7 8 8 8 8 9 11 11 10 9 9 8 8 8 7 7 7 7 8 7 6 6 6 6 6 5 3 2 2 6 7 7 6 5 4 3 2 3 4 5 4 4
7 8 8 9 9 9 10 12 12 11 11 10 9 8 8 7 8 8 8 8 7 7 7 7 7 7 7 4 2 2 5 7 7 6 5 4 2 1 1 2 2 3 2
7 8 8 9 10 10 10 11 11 11 11 10 9 8 8 8 9 10 9 8 7 7 7 7 8 9 8 6 3 2 2 4 6 6 5 4 2 1 1 1 1 2 2
5 6 6 8 9 9 9 11 11 11 10 9 8 7 8 10 11 10 9 8 8 7 7 7 8 10 9 7 5 3 2 2 3 4 5 4 2 2 2 2 2 3 4
4 4 5 6 8 9 9 11 12 11 10 9 8 7 7 9 10 10 9 8 7 7 7 8 9 9 8 6 5 4 3 2 2 3 4 5 4 4 5 5 4 4 5
3 4 4 6 8 9 10 11 12 11 11 10 8 6 6 8 9 10 9 7 7 7 8 9 9 8 6 4 3 3 3 2 2 3 4 6 6 5 6 7 6 5 5
Wind_Speed
14 14 14 13 13 12 12 11 11 10 8 7 7 6 6 5 5 5 5 5 5 5 4 3 3 4 4 4 4 3 4 4 3 4 3 4 5 4 4 4 4 4 4
14 14 14 14 14 14 13 12 12 11 11 8 6 5 4 5 5 4 4 6 6 5 5 5 4 4 4 5 4 4 4 3 3 3 3 3 4 4 3 3 3 3 3
15 16 16 16 15 15 14 12 12 12 11 10 7 6 5 5 5 6 5 6 6 6 5 5 5 4 6 5 5 5 5 4 3 3 3 3 1 1 3 3 2 2 2
15 15 16 16 16 15 14 13 12 12 11 11 9 9 7 7 6 5 5 5 6 6 6 6 5 5 5 4 6 5 5 5 4 3 4 4 3 3 1 3 3 2 2
14 15 16 16 16 15 14 13 13 12 12 11 10 10 9 7 6 5 5 5 5 6 6 5 5 5 5 5 5 4 5 5 5 4 3 4 4 5 4 3 2 2 2
13 14 14 14 14 14 14 13 13 13 12 12 11 11 10 8 7 6 6 6 5 5 6 6 5 5 5 5 5 5 6 5 5 4 4 4 4 4 4 4 4 3 2
12 13 15 15 15 15 15 14 14 13 13 13 12 11 10 9 9 8 7 6 5 5 5 5 5 5 5 5 5 5 5 5 5 5 4 4 4 4 4 5 4 3 2
11 12 13 14 14 16 16 15 14 13 13 12 11 10 10 8 7 8 7 6 5 4 4 5 6 6 6 6 5 5 5 5 5 6 5 5 4 4 4 4 4 4 3
9 11 12 13 14 15 15 15 14 13 12 12 11 10 10 9 8 7 8 6 5 5 6 6 6 6 6 6 6 5 5 5 6 6 6 6 4 4 4 4 5 5 4
7 9 10 11 11 12 13 13 13 12 11 11 10 8 9 9 8 7 7 6 6 5 6 6 6 6 6 6 7 6 6 6 5 4 5 5 5 4 4 4 4 5 5
4 6 7 8 9 10 11 11 11 11 10 10 9 9 9 8 8 7 7 7 6 6 6 6 6 6 7 6 6 7 6 7 6 6 6 6 6 4 4 4 5 5 5
2 4 6 6 7 8 9 10 10 10 9 9 9 9 8 7 8 7 7 7 7 7 7 7 6 7 7 6 7 8 7 7 7 7 7 7 6 6 5 4 5 4 4
1 3 4 5 6 7 7 8 8 9 8 8 8 8 8 7 7 7 6 6 7 6 6 6 6 6 6 7 7 7 7 7 7 7 7 7 7 7 5 6 5 5 5
2 2 3 4 5 5 6 6 6 6 7 7 7 7 7 7 7 6 6 6 6 6 6 6 6 6 6 7 7 7 7 7 7 7 7 7 8 7 7 6 6 5 5
2 2 3 4 5 5 6 6 6 6 6 6 6 6 6 6 6 5 5 5 6 6 6 6 6 6 6 6 6 6 7 7 7 7 7 7 6 6 6 5 5 6 5
2 2 3 4 5 5 6 6 6 6 6 6 6 5 5 5 5 5 5 5 6 6 6 6 6 7 5 2 4 6 7 7 7 7 7 7 7 6 7 6 5 6 7
2 2 3 3 3 4 5 6 6 6 6 6 6 6 6 6 5 5 5 5 5 5 5 5 6 6 5 4 6 8 8 8 7 7 6 6 5 7 7 7 7 8 7
2 1 1 3 3 3 4 5 5 6 6 6 6 5 5 5 5 4 4 4 4 4 4 5 5 5 5 5 7 7 9 9 8 7 7 7 6 5 5 6 7 7 7
1 1 1 1 2 3 4 4 5 5 5 5 5 5 5 5 5 5 4 4 4 4 5 5 5 6 5 5 6 7 7 7 8 7 7 7 7 5 5 7 7 7 6
1 0 1 1 2 3 4 4 5 5 5 5 5 5 5 5 5 4 4 4 4 4 5 5 5 5 5 3 5 6 6 6 6 6 6 6 6 5 6 7 7 7 6
2 2 1 1 1 2 3 4 4 4 4 4 4 4 5 5 5 5 4 4 4 4 5 4 5 5 5 4 5 6 6 6 6 5 5 4 6 7 8 8 7 7 6
2 1 1 1 0 1 3 3 3 3 3 3 4 4 4 4 3 4 5 4 5 5 6 5 6 5 5 4 5 5 6 6 6 5 5 3 5 7 8 7 6 5 6
1 1 1 1 1 2 3 3 3 2 2 3 3 3 3 3 3 4 5 5 5 6 5 5 5 5 4 4 7 7 7 7 6 4 3 2 4 6 7 8 7 7 6
1 1 1 2 2 2 2 3 2 2 3 3 3 3 3 4 3 4 4 4 5 5 5 5 5 5 4 4 4 5 5 6 6 5 3 5 7 6 5 5 7 6 5
1 1 2 2 3 3 3 3 2 2 3 3 3 3 4 3 3 4 3 5 4 3 4 5 5 5 6 3 2 3 4 4 2 2 4 4 4 5 5 4 4 4 5
2 2 2 3 4 4 3 3 3 4 4 4 3 3 4 3 4 4 4 2 4 3 4 5 6 5 4 3 3 4 4 5 4 4 5 5 5 5 5 5 4 4 4
Wind_Direction
193 190 192 194 191 191 192 194 197 189 195 198 200 200 203 209 209 215 209 216 223 218 227 240 210 229 224 232 234 233 223 234 237 251 245 231 224 231 232 240 252 241 241
193 190 193 195 195 193 194 195 197 194 198 197 203 209 216 215 214 218 207 220 221 223 218 226 231 224 227 227 232 234 250 243 221 258 264 235 194 201 210 220 223 244 243
197 191 194 197 196 194 195 196 197 196 200 197 201 199 204 220 210 210 209 217 221 223 234 230 238 235 237 226 230 233 240 249 231 237 268 279 264 216 176 198 206 216 238
201 196 194 196 198 195 192 193 193 197 197 199 208 206 209 215 216 215 211 211 218 226 226 230 231 238 244 237 235 224 242 247 246 218 236 270 312 288 234 189 173 188 218
200 198 198 196 197 193 189 189 191 196 195 200 204 210 217 219 217 213 211 221 211 219 226 225 226 230 239 240 248 246 246 244 251 248 235 231 234 249 265 253 224 208 206
201 198 198 193 193 191 190 189 189 194 194 198 203 211 218 221 221 218 215 216 211 211 215 220 225 234 240 235 237 240 235 248 256 259 251 240 242 239 248 256 245 241 234
203 196 194 192 191 191 190 190 190 194 196 199 204 207 213 216 221 225 222 227 220 213 209 217 222 233 236 239 239 233 244 236 238 242 247 248 251 260 261 267 268 261 245
203 198 194 194 193 193 191 191 192 195 195 199 203 206 209 215 219 223 230 222 226 223 211 215 224 232 236 238 231 240 234 232 235 241 245 247 245 249 253 260 265 261 244
205 203 197 195 195 195 193 194 192 194 195 197 199 204 208 217 222 218 224 226 221 218 210 219 226 232 236 240 236 237 238 235 239 240 231 240 238 240 245 247 253 263 263
208 204 201 197 196 195 192 192 191 193 194 194 196 199 203 210 217 221 220 224 220 220 220 220 227 231 234 233 236 237 232 233 236 240 243 242 243 236 237 239 242 251 262
212 199 197 195 191 188 185 186 187 188 192 195 195 199 200 201 206 212 215 216 218 215 221 224 227 230 234 234 234 241 236 234 235 235 230 231 244 243 237 232 234 236 242
216 193 186 184 178 177 179 178 181 184 187 189 190 195 196 200 207 210 212 213 214 215 219 226 227 231 233 233 234 238 238 236 236 234 233 233 225 228 244 241 238 234 236
151 167 170 174 172 171 172 169 176 177 177 182 185 187 193 199 210 216 214 212 214 217 221 227 227 232 235 234 235 239 240 239 239 238 234 232 228 227 230 238 238 232 223
118 144 154 157 157 161 163 163 167 169 171 176 183 185 193 198 207 212 214 216 217 217 221 227 230 233 237 238 238 238 241 242 241 239 237 234 231 229 230 230 232 235 232
129 140 144 145 149 154 159 159 161 164 166 168 174 179 186 193 201 206 211 216 223 222 221 226 227 232 235 235 237 240 238 240 240 239 237 235 234 239 240 244 231 228 232
146 147 144 147 151 157 161 161 163 169 169 169 172 171 178 185 191 203 209 214 222 228 224 225 229 234 240 222 233 247 245 242 241 242 240 234 223 223 226 244 248 243 236
142 149 148 157 166 165 166 164 166 171 173 174 177 176 181 186 191 204 204 211 216 223 224 224 230 238 238 222 226 238 248 245 243 242 240 241 229 217 225 220 226 234 243
150 143 164 172 178 170 170 175 172 173 176 178 179 177 185 189 189 197 203 210 214 221 227 234 237 241 239 221 224 229 239 244 243 238 235 237 237 222 223 224 223 228 228
169 177 186 199 185 180 177 180 177 179 183 182 183 184 187 192 194 200 208 215 221 226 231 231 235 241 239 222 222 229 239 236 237 235 234 234 231 210 213 223 223 226 227
198 210 236 238 196 179 177 190 190 191 196 192 191 190 190 194 199 204 212 217 224 229 236 235 237 242 247 218 215 226 241 236 235 232 230 223 232 207 202 223 223 225 227
204 196 210 247 200 175 174 190 196 206 205 197 190 191 195 197 203 211 217 218 229 238 245 245 241 238 241 219 207 221 245 247 243 236 232 218 197 206 209 226 229 229 229
193 181 213 276 287 205 187 196 210 222 216 208 205 194 208 219 201 208 223 226 231 234 235 235 244 239 226 221 204 208 233 263 255 249 246 223 181 205 214 223 232 222 224
191 226 279 314 298 242 218 223 230 234 221 211 216 208 212 231 227 225 225 222 222 236 243 243 246 247 235 204 188 202 217 230 247 261 282 265 207 211 215 219 220 218 221
250 293 301 308 301 278 252 253 255 250 232 220 222 220 222 228 227 236 235 237 235 240 246 251 255 257 250 240 214 210 209 212 227 244 231 210 213 223 226 209 210 222 226
288 287 291 299 301 296 282 273 269 258 244 236 240 239 242 240 239 241 252 253 261 261 260 270 274 271 267 278 294 253 249 255 254 264 251 242 222 221 219 216 211 215 215
297 284 293 299 300 293 274 275 275 260 252 246 245 253 255 247 247 246 249 231 234 208 217 238 260 277 277 270 264 246 238 234 228 235 237 236 232 228 226 221 211 211 215